Wind_Speed
22 23 23 23 23 23 23 24 24 25 26 27 28 29 30 32 34 35 36 36 36 37 38 38 38 39 40 41 42 42 42 44 45 45 46 46 45 43
24 25 25 26 26 26 25 25 26 26 28 30 30 30 31 32 34 36 38 39 40 40 40 40 41 41 41 42 43 44 44 44 44 45 46 48 48 47
26 27 27 28 28 27 28 28 28 28 29 30 31 32 32 33 34 36 38 40 42 43 43 44 44 44 44 43 43 44 45 45 45 46 46 47 49 49
29 29 30 30 30 30 30 29 29 29 29 30 32 33 34 34 34 35 37 39 41 44 45 46 47 46 47 46 46 45 46 46 47 46 47 47 48 49
30 31 32 32 32 32 32 31 31 31 31 31 32 34 35 36 36 36 36 38 40 42 45 47 49 50 49 49 49 48 48 47 47 48 47 47 48 49
33 33 34 33 34 34 33 33 33 33 33 33 34 35 36 37 38 37 37 38 39 41 43 46 49 51 52 52 51 50 50 49 48 49 49 48 48 49
36 36 35 35 36 35 35 35 35 35 35 35 35 36 37 38 38 38 38 38 39 40 42 45 47 49 52 53 54 53 52 52 51 50 50 50 49 49
38 38 38 38 38 37 37 37 37 37 37 37 37 37 37 39 39 38 38 38 38 40 41 43 46 48 50 52 54 55 54 53 52 52 51 51 51 50
40 40 40 39 39 39 39 39 39 39 39 39 38 38 39 39 39 38 38 38 38 39 40 40 43 45 48 50 52 54 55 55 55 54 53 52 52 51
42 42 42 41 42 42 41 41 41 41 41 40 39 39 39 40 39 39 39 38 38 39 40 39 41 43 46 48 49 51 53 55 55 56 54 53 53 51
45 44 44 44 44 44 43 42 42 43 43 41 40 39 40 40 40 39 39 39 38 39 40 39 40 42 44 46 48 50 52 53 55 55 55 54 54 53
47 47 47 47 46 47 46 44 43 44 44 42 41 40 40 40 40 40 39 39 38 38 40 40 40 41 41 43 46 49 51 52 53 55 55 55 55 54
51 50 50 50 49 49 48 47 45 45 44 43 41 41 40 40 40 40 39 39 38 38 40 41 40 40 40 41 43 46 49 51 52 53 55 55 55 55
54 53 53 53 52 51 50 49 48 46 44 42 41 40 40 40 41 40 39 39 38 38 39 41 40 41 41 40 41 44 47 49 50 52 54 55 55 55
58 57 57 56 55 53 52 51 49 47 45 42 41 40 41 41 41 40 40 39 39 39 39 40 41 41 42 41 41 43 45 47 49 50 52 54 55 54
62 61 60 59 57 55 53 51 49 47 45 43 41 41 41 40 40 39 39 39 39 38 39 40 41 41 42 42 41 41 43 45 48 49 50 52 52 53
65 64 61 60 58 55 53 51 50 47 46 43 42 41 40 40 40 40 39 39 37 37 38 39 40 40 41 42 41 42 43 45 47 49 50 50 51 52
66 64 61 58 56 54 52 51 49 48 47 45 42 41 41 40 39 39 38 37 36 36 37 39 39 40 40 40 41 42 43 45 46 48 49 49 50 51
65 62 59 57 54 52 51 50 48 47 46 45 43 41 40 39 38 37 36 35 35 36 37 38 38 38 38 38 40 41 42 44 45 46 47 48 49 51
62 59 56 54 52 51 49 47 46 45 45 43 41 39 37 37 36 35 35 35 35 35 35 36 36 37 37 37 38 39 40 41 43 44 46 47 48 49
57 54 52 50 49 48 47 45 43 42 42 41 39 38 36 35 35 34 34 33 33 33 33 33 35 36 36 36 35 36 39 40 41 43 44 46 47 47
48 46 46 45 45 43 42 41 41 40 39 38 37 36 35 35 34 34 33 33 33 32 32 32 33 34 34 33 33 34 36 38 40 42 43 45 46 47
38 38 37 38 39 39 38 37 36 35 36 35 34 33 33 33 33 33 32 32 32 31 31 32 32 32 32 31 32 33 34 37 39 40 42 44 45 46
Wind_Direction
307 308 307 305 305 303 300 295 292 289 287 284 280 277 273 270 267 264 261 258 257 255 253 251 249 248 246 244 242 241 239 238 237 236 236 236 236 237
307 307 306 305 304 301 299 297 293 291 289 287 284 281 276 272 268 264 262 259 257 255 254 252 250 249 247 245 243 241 241 239 238 238 238 237 236 237
307 307 306 305 302 300 298 297 294 292 291 289 287 284 280 275 271 267 264 260 257 255 253 252 251 250 248 246 244 243 241 239 239 238 238 238 237 237
306 306 306 305 302 299 298 296 295 293 292 290 288 286 283 279 275 271 267 263 259 256 254 252 251 250 248 247 245 244 242 240 239 239 238 238 238 238
304 305 305 304 302 300 298 296 295 295 293 291 288 287 284 281 277 274 271 266 262 259 256 254 252 250 248 247 246 245 243 242 241 239 239 239 238 238
302 303 303 302 302 301 298 296 295 295 294 292 289 287 285 281 278 276 273 269 265 261 258 255 253 251 249 247 246 245 243 242 241 240 239 239 239 238
301 302 301 301 301 300 298 297 296 295 295 293 291 288 285 282 279 276 274 271 268 264 261 257 254 252 250 247 245 244 243 242 241 240 240 239 239 239
299 300 300 299 298 298 297 296 296 295 295 294 292 290 286 283 280 277 274 271 269 266 263 260 256 253 252 249 246 244 243 241 240 240 240 239 238 238
298 298 298 298 297 297 297 296 295 294 294 294 293 290 287 284 281 277 274 271 268 267 264 261 258 255 253 251 248 245 243 242 241 239 239 239 238 237
296 296 296 296 296 296 296 295 294 293 293 293 292 289 286 283 280 277 274 270 267 266 264 261 260 257 254 252 249 246 244 242 240 239 238 238 237 237
294 294 294 294 295 295 295 295 293 292 291 292 291 287 284 281 278 276 273 271 267 266 264 261 259 258 256 253 250 247 244 242 241 239 238 238 237 237
292 292 293 293 293 293 293 293 293 291 291 291 289 286 283 279 277 275 273 270 268 266 264 262 259 258 257 255 252 249 245 243 241 239 238 237 236 235
290 291 291 292 292 292 292 292 291 290 290 289 288 286 282 278 276 274 273 271 269 266 263 261 260 258 256 254 253 250 246 244 242 240 238 237 236 234
288 289 289 290 290 290 290 289 289 289 287 287 286 284 281 278 276 275 273 271 268 266 263 260 258 257 256 253 251 250 247 244 242 240 238 237 236 235
286 287 287 287 287 287 288 287 287 286 285 285 284 282 279 278 277 275 273 271 269 266 263 260 257 256 256 253 251 249 248 246 243 241 239 237 236 235
284 283 284 284 284 284 284 284 284 283 282 282 281 279 278 277 276 275 273 271 269 265 263 260 258 257 255 253 251 249 248 246 244 241 238 237 236 234
281 281 281 281 281 281 280 280 279 279 279 279 278 277 276 275 274 274 273 271 268 265 263 261 259 257 255 253 251 249 247 246 244 242 238 236 235 234
279 280 279 279 278 277 277 276 275 275 277 276 275 274 274 274 273 272 272 270 267 264 263 262 261 258 256 253 251 249 247 245 243 241 239 235 234 234
278 278 277 275 274 273 273 272 272 272 273 272 272 273 272 271 270 269 270 268 266 264 263 262 261 259 256 253 251 249 247 244 242 240 238 235 234 233
276 275 273 271 270 270 269 270 270 268 269 270 270 270 270 269 267 267 267 267 266 265 263 262 260 258 255 252 250 248 246 243 241 239 237 235 233 232
273 271 270 268 267 267 267 268 267 265 266 267 267 267 268 267 267 266 266 267 266 265 264 262 259 257 255 253 250 248 246 243 240 238 236 234 232 230
271 268 266 264 264 265 265 265 264 263 263 264 264 264 265 265 265 264 264 266 266 265 263 260 259 257 256 253 249 247 246 243 240 238 235 233 231 228
268 264 263 262 262 262 261 259 259 260 260 260 261 263 263 262 262 263 264 265 265 264 262 260 259 257 255 253 250 248 245 242 240 237 234 232 230 228
Height
5834 5832 5830 5828 5826 5824 5822 5820 5819 5817 5816 5815 5814 5814 5814 5814 5814 5815 5816 5817 5819 5820 5822 5825 5827 5829 5832 5835 5839 5842 5846 5850 5854 5858 5863 5868 5872 5877
5828 5826 5824 5822 5819 5817 5815 5813 5812 5810 5808 5806 5805 5805 5805 5804 5804 5805 5805 5807 5808 5810 5812 5814 5817 5819 5822 5825 5829 5832 5836 5840 5844 5848 5853 5857 5862 5867
5822 5819 5817 5814 5812 5810 5808 5806 5804 5802 5800 5798 5796 5795 5794 5794 5794 5794 5794 5795 5797 5798 5801 5803 5806 5808 5811 5815 5818 5821 5825 5829 5833 5838 5842 5847 5852 5857
5815 5812 5809 5807 5804 5802 5799 5797 5795 5794 5792 5790 5787 5785 5784 5783 5783 5783 5783 5784 5785 5786 5788 5791 5794 5797 5800 5803 5807 5810 5814 5818 5823 5827 5831 5836 5841 5845
5807 5804 5801 5799 5796 5793 5791 5788 5786 5784 5783 5781 5778 5776 5774 5772 5772 5772 5772 5772 5773 5774 5775 5778 5781 5784 5787 5791 5794 5799 5803 5807 5811 5815 5820 5824 5829 5834
5798 5796 5793 5790 5787 5784 5781 5779 5777 5774 5772 5771 5768 5766 5764 5761 5761 5761 5761 5760 5761 5762 5763 5765 5767 5770 5774 5778 5782 5786 5790 5794 5799 5803 5808 5813 5817 5822
5790 5787 5784 5781 5778 5775 5772 5769 5766 5764 5761 5759 5757 5755 5753 5750 5749 5749 5749 5749 5749 5749 5750 5752 5754 5757 5759 5763 5767 5772 5777 5781 5786 5791 5796 5801 5805 5810
5780 5777 5774 5771 5768 5765 5762 5759 5756 5753 5750 5748 5746 5744 5741 5739 5738 5737 5737 5737 5737 5737 5738 5739 5740 5743 5745 5749 5753 5758 5763 5768 5773 5778 5783 5788 5793 5798
5770 5766 5763 5760 5757 5754 5751 5748 5745 5742 5739 5737 5734 5732 5729 5727 5726 5725 5725 5725 5725 5724 5725 5727 5727 5730 5732 5735 5739 5744 5749 5754 5759 5764 5770 5775 5780 5786
5758 5755 5752 5749 5745 5742 5739 5736 5733 5730 5727 5725 5723 5720 5717 5715 5713 5713 5712 5713 5713 5712 5713 5715 5715 5717 5719 5722 5725 5729 5734 5739 5745 5750 5756 5762 5767 5773
5746 5743 5740 5737 5733 5729 5727 5724 5721 5717 5714 5712 5710 5707 5705 5702 5701 5700 5700 5700 5701 5700 5700 5702 5703 5704 5706 5709 5712 5715 5720 5725 5731 5736 5742 5748 5754 5760
5732 5729 5726 5723 5720 5716 5713 5711 5708 5704 5701 5699 5697 5694 5692 5690 5688 5688 5687 5687 5688 5689 5688 5689 5691 5692 5695 5696 5698 5702 5706 5711 5716 5722 5728 5734 5740 5746
5717 5715 5711 5708 5705 5701 5699 5697 5694 5691 5688 5685 5683 5681 5679 5677 5675 5675 5675 5675 5676 5677 5676 5676 5679 5680 5682 5685 5686 5688 5692 5697 5702 5708 5714 5720 5726 5733
5701 5699 5696 5692 5689 5686 5684 5682 5679 5676 5674 5672 5670 5668 5665 5664 5662 5662 5662 5662 5663 5663 5663 5664 5666 5667 5669 5672 5675 5676 5679 5683 5689 5694 5700 5706 5712 5719
5684 5682 5679 5676 5673 5670 5668 5666 5663 5661 5660 5658 5657 5655 5652 5651 5650 5649 5649 5649 5649 5650 5650 5651 5653 5654 5657 5660 5662 5664 5667 5670 5675 5680 5686 5692 5699 5706
5665 5663 5661 5658 5656 5654 5652 5650 5648 5646 5645 5644 5643 5641 5639 5638 5637 5636 5636 5636 5636 5637 5637 5638 5639 5641 5644 5646 5649 5652 5655 5658 5662 5666 5672 5678 5685 5692
5644 5643 5641 5640 5638 5636 5635 5633 5632 5631 5630 5630 5629 5628 5626 5625 5624 5623 5623 5623 5624 5625 5625 5625 5626 5628 5631 5634 5637 5640 5642 5645 5649 5653 5659 5666 5672 5679
5622 5622 5621 5620 5619 5618 5617 5616 5616 5615 5615 5615 5614 5614 5613 5612 5611 5610 5610 5611 5611 5612 5613 5613 5614 5616 5618 5621 5624 5626 5628 5632 5635 5640 5646 5653 5660 5666
5600 5601 5600 5600 5600 5600 5600 5599 5600 5599 5599 5600 5600 5600 5599 5599 5598 5598 5598 5599 5599 5600 5600 5600 5601 5603 5605 5608 5610 5612 5615 5618 5622 5628 5634 5641 5648 5654
5578 5579 5580 5580 5581 5581 5582 5583 5583 5584 5585 5585 5586 5586 5586 5586 5586 5586 5587 5587 5587 5588 5588 5589 5589 5590 5592 5595 5597 5600 5603 5606 5611 5616 5621 5627 5635 5642
5557 5558 5560 5561 5562 5564 5565 5567 5568 5569 5570 5571 5572 5573 5573 5573 5574 5575 5575 5575 5576 5576 5577 5578 5578 5578 5580 5583 5587 5589 5591 5594 5599 5604 5610 5616 5623 5630
5538 5539 5541 5543 5545 5547 5549 5551 5553 5555 5556 5558 5559 5560 5561 5562 5563 5563 5564 5564 5565 5565 5566 5567 5567 5568 5570 5572 5575 5578 5580 5583 5587 5592 5598 5605 5611 5619
5521 5523 5525 5528 5530 5532 5535 5537 5539 5542 5543 5545 5547 5548 5549 5550 5551 5552 5553 5554 5554 5555 5555 5556 5557 5558 5559 5562 5564 5567 5569 5572 5576 5582 5588 5594 5600 5607